Estación Meteorológica de la Universidad de Murcia
Estación Meteorológica de la Universidad de Murcia
Universidad de Murcia
 

Humedad relativaHumedad relativa

 

Máxima: 100 % a las 00:00:00 del día 20/08/2017
Mínima: 49,4 % a las 17:36:00 del día 20/08/2017

||Humedad máxima últimos meses|| ---- ||Humedad mínima últimos meses||


Humedad máxima

  • 1 - 100 % del día 20/08/2017
  • 2 - 100 % del día 19/08/2017
  • 3 - 100 % del día 18/08/2017
  • 4 - 100 % del día 17/08/2017
  • 5 - 100 % del día 16/08/2017
  • 6 - 100 % del día 15/08/2017
  • 7 - 98,4 % del día 14/08/2017
  • 8 - 100 % del día 13/08/2017
  • 9 - 100 % del día 12/08/2017
  • 10 - 100 % del día 11/08/2017
  • 11 - 100 % del día 10/08/2017
  • 12 - 100 % del día 09/08/2017
  • 13 - 100 % del día 08/08/2017
  • 14 - 100 % del día 07/08/2017
  • 15 - 100 % del día 06/08/2017
  • 16 - 100 % del día 05/08/2017
  • 17 - 96,5 % del día 04/08/2017
  • 18 - 99,1 % del día 03/08/2017
  • 19 - 100 % del día 02/08/2017
  • 20 - 100 % del día 01/08/2017
  • 21 - 100 % del día 31/07/2017
  • 22 - 100 % del día 30/07/2017
  • 23 - 100 % del día 29/07/2017
  • 24 - 100 % del día 28/07/2017
  • 25 - 100 % del día 27/07/2017
  • 26 - 95,8 % del día 26/07/2017
  • 27 - 100 % del día 25/07/2017
  • 28 - 100 % del día 24/07/2017
  • 29 - 97,3 % del día 23/07/2017
  • 30 - 100 % del día 22/07/2017
  • 31 - 100 % del día 21/07/2017
  • 32 - 100 % del día 20/07/2017
  • 33 - 100 % del día 19/07/2017
  • 34 - 99,8 % del día 18/07/2017
  • 35 - 97,3 % del día 17/07/2017
  • 36 - 100 % del día 16/07/2017
  • 37 - 100 % del día 15/07/2017
  • 38 - 100 % del día 14/07/2017
  • 39 - 100 % del día 13/07/2017
  • 40 - 100 % del día 12/07/2017
  • 41 - 94,5 % del día 11/07/2017
  • 42 - 93,4 % del día 10/07/2017
  • 43 - 65,9 % del día 09/07/2017
  • 44 - 100 % del día 08/07/2017
  • 45 - 100 % del día 07/07/2017
  • 46 - 76,3 % del día 06/07/2017
  • 47 - 100 % del día 05/07/2017
  • 48 - 96,7 % del día 04/07/2017
  • 49 - 99,2 % del día 03/07/2017
  • 50 - 100 % del día 02/07/2017
  • 51 - 92,3 % del día 01/07/2017
  • 52 - 39,4 % del día 30/06/2017
  • 53 - 48,7 % del día 29/06/2017
  • 54 - 45,4 % del día 28/06/2017
  • 55 - 100 % del día 27/06/2017
  • 56 - 87 % del día 26/06/2017
  • 57 - 100 % del día 25/06/2017
  • 58 - 97,1 % del día 24/06/2017
  • 59 - 96,3 % del día 23/06/2017
  • 60 - 91,5 % del día 22/06/2017

||Volver al inicio de la página||


Humedad mínima

  • 1 - 49,4 % del día 20/08/2017
  • 2 - 31 % del día 19/08/2017
  • 3 - 41,1 % del día 18/08/2017
  • 4 - 41,3 % del día 17/08/2017
  • 5 - 46 % del día 16/08/2017
  • 6 - 49 % del día 15/08/2017
  • 7 - 36,1 % del día 14/08/2017
  • 8 - 37,7 % del día 13/08/2017
  • 9 - 29 % del día 12/08/2017
  • 10 - 36 % del día 11/08/2017
  • 11 - 53,8 % del día 10/08/2017
  • 12 - 36,6 % del día 09/08/2017
  • 13 - 14,6 % del día 08/08/2017
  • 14 - 47,7 % del día 07/08/2017
  • 15 - 46,3 % del día 06/08/2017
  • 16 - 31,3 % del día 05/08/2017
  • 17 - 32,8 % del día 04/08/2017
  • 18 - 22,8 % del día 03/08/2017
  • 19 - 46,6 % del día 02/08/2017
  • 20 - 39,7 % del día 01/08/2017
  • 21 - 43,7 % del día 31/07/2017
  • 22 - 21,8 % del día 30/07/2017
  • 23 - 38,6 % del día 29/07/2017
  • 24 - 29,7 % del día 28/07/2017
  • 25 - 25,5 % del día 27/07/2017
  • 26 - 34,6 % del día 26/07/2017
  • 27 - 48,2 % del día 25/07/2017
  • 28 - 32,2 % del día 24/07/2017
  • 29 - 34,6 % del día 23/07/2017
  • 30 - 41,4 % del día 22/07/2017
  • 31 - 41,3 % del día 21/07/2017
  • 32 - 27,7 % del día 20/07/2017
  • 33 - 43,3 % del día 19/07/2017
  • 34 - 29,5 % del día 18/07/2017
  • 35 - 31,8 % del día 17/07/2017
  • 36 - 26,1 % del día 16/07/2017
  • 37 - 48,2 % del día 15/07/2017
  • 38 - 52,3 % del día 14/07/2017
  • 39 - 47,5 % del día 13/07/2017
  • 40 - 32,4 % del día 12/07/2017
  • 41 - 31,3 % del día 11/07/2017
  • 42 - 26,7 % del día 10/07/2017
  • 43 - 23,2 % del día 09/07/2017
  • 44 - 28,1 % del día 08/07/2017
  • 45 - 55,5 % del día 07/07/2017
  • 46 - 33,1 % del día 06/07/2017
  • 47 - 44,2 % del día 05/07/2017
  • 48 - 41,1 % del día 04/07/2017
  • 49 - 32,9 % del día 03/07/2017
  • 50 - 37,8 % del día 02/07/2017
  • 51 - 34,1 % del día 01/07/2017
  • 52 - 15 % del día 30/06/2017
  • 53 - 15,7 % del día 29/06/2017
  • 54 - 21,2 % del día 28/06/2017
  • 55 - 8,9 % del día 27/06/2017
  • 56 - 34,9 % del día 26/06/2017
  • 57 - 26,9 % del día 25/06/2017
  • 58 - 15,3 % del día 24/06/2017
  • 59 - 19,6 % del día 23/06/2017
  • 60 - 20,1 % del día 22/06/2017

 

|| Temperatura Ambiente|| Velocidad y dirección del viento|| Precipitación|| Radiación Solar Global y PAR|| Temperatura y humedad del suelo|| Presión atmosférica|| Más información|| Volver a la página principal|| Volver al inicio de la página||


Estación Meteorológica de la Universidad de Murcia
http://estacion.um.es/
Informacion actualizada a: 21/08/2017 a las 17:42:00